Regional Weather Roundup
Issued by NWS Goodland, KS

Home | Current Version | Previous Version | Text Only | Print | Product List | Glossary Off
Versions: 1 2 3 4 5 6 7 8 9 10 11 12 13 14 15 16 17 18 19 20 21 22 23 24 25 26 27 28 29 30 31 32 33 34 35 36 37 38 39 40 41 42 43 44 45 46 47 48 49 50

000
ASUS43 KGLD 310010
RWRGLD

GOODLAND FORECAST AREA HOURLY WEATHER ROUNDUP
NATIONAL WEATHER SERVICE DODGE CITY KS
FOR NATIONAL WEATHER SERVICE GOODLAND KS
700 PM CDT THU JUL 30 2015

...OFFICIAL OBSERVATIONS...

CITY           SKY/WX    TMP DP  RH WIND       PRES   REMARKS
GOODLAND KS    SUNNY     86  55  34 SE14G20   30.20F
HILL CITY KS   SUNNY     88  64  44 VRB3      30.15F
IMPERIAL NEB   PTSUNNY   89  55  31 SE14      30.17F
MCCOOK NEB     MOSUNNY   88  60  38 SE10      30.15F
AKRON CO       MOSUNNY   75  59  57 SE22      30.27R
BURLINGTON CO  SUNNY     83  57  41 S18       30.23F
LIMON CO       MOSUNNY   81  57  43 SE22G29   30.29S
$$

...UNOFFICIAL OBSERVATIONS...

CITY           SKY/WX    TMP DP  RH WIND       PRES   REMARKS
COLBY KS       NOT AVBL
HOXIE KS       NOT AVBL
TRIBUNE KS     NOT AVBL
IDALIA CO      NOT AVBL
YUMA CO        NOT AVBL
$$


USA.gov is the U.S. government's official web portal to all federal, state and local government web resources and services.